Time,TemperatureF,DewpointF,PressureIn,WindDirection,WindDirectionDegrees,WindSpeedMPH,WindSpeedGustMPH,Humidity,HourlyPrecipIn,Conditions,Clouds,dailyrainin,SoftwareType,DateUTC
2013-01-15 00:05:00,36.8,35.0,30.78,ENE,72,2.0,3.0,92,0.00,,,0.00,weatherlink.com 1.10,2013-01-15 08:05:00,
2013-01-15 00:20:00,36.8,35.0,30.78,ENE,75,2.0,3.0,92,0.00,,,0.00,weatherlink.com 1.10,2013-01-15 08:20:00,
2013-01-15 00:35:00,36.6,35.0,30.78,NE,53,3.0,4.0,92,0.00,,,0.00,weatherlink.com 1.10,2013-01-15 08:35:00,
2013-01-15 00:50:00,36.4,34.0,30.79,NE,34,3.0,6.0,92,0.00,,,0.00,weatherlink.com 1.10,2013-01-15 08:50:00,
2013-01-15 01:05:00,36.4,34.0,30.79,ENE,71,4.0,6.0,92,0.00,,,0.00,weatherlink.com 1.10,2013-01-15 09:05:00,
2013-01-15 01:20:00,36.3,35.0,30.80,NE,51,6.0,8.0,93,0.00,,,0.00,weatherlink.com 1.10,2013-01-15 09:20:00,
2013-01-15 01:35:00,36.3,34.0,30.80,NE,39,4.0,9.0,92,0.00,,,0.00,weatherlink.com 1.10,2013-01-15 09:35:00,
2013-01-15 01:50:00,36.3,34.0,30.81,NE,53,6.0,7.0,92,0.00,,,0.00,weatherlink.com 1.10,2013-01-15 09:50:00,
2013-01-15 02:05:00,36.4,34.0,30.81,ENE,65,3.0,6.0,92,0.00,,,0.00,weatherlink.com 1.10,2013-01-15 10:05:00,
2013-01-15 02:20:00,36.3,34.0,30.81,NE,39,5.0,6.0,91,0.00,,,0.00,weatherlink.com 1.10,2013-01-15 10:20:00,
2013-01-15 02:35:00,36.3,34.0,30.82,ENE,69,3.0,6.0,91,0.00,,,0.00,weatherlink.com 1.10,2013-01-15 10:35:00,
2013-01-15 02:50:00,35.5,33.0,30.83,NNE,27,3.0,6.0,91,0.00,,,0.00,weatherlink.com 1.10,2013-01-15 10:50:00,
2013-01-15 03:05:00,-999.0,-99.9,30.83,North,-999,-999.0,-999.0,-999,0.00,,,0.00,weatherlink.com 1.10,2013-01-15 11:05:00,
2013-01-15 03:20:00,-999.0,-99.9,30.82,North,-999,-999.0,-999.0,-999,0.00,,,0.00,weatherlink.com 1.10,2013-01-15 11:20:00,
2013-01-15 03:35:00,-999.0,-99.9,30.82,North,-999,-999.0,-999.0,-999,0.00,,,0.00,weatherlink.com 1.10,2013-01-15 11:35:00,
2013-01-15 03:50:00,-999.0,-99.9,30.82,North,-999,-999.0,-999.0,-999,0.00,,,0.00,weatherlink.com 1.10,2013-01-15 11:50:00,
2013-01-15 04:05:00,-999.0,-99.9,30.83,North,-999,-999.0,-999.0,-999,0.00,,,0.00,weatherlink.com 1.10,2013-01-15 12:05:00,
2013-01-15 04:20:00,-999.0,-99.9,30.82,North,-999,-999.0,-999.0,-999,0.00,,,0.00,weatherlink.com 1.10,2013-01-15 12:20:00,
2013-01-15 04:35:00,-999.0,-99.9,30.83,North,-999,-999.0,-999.0,-999,0.00,,,0.00,weatherlink.com 1.10,2013-01-15 12:35:00,
2013-01-15 04:50:00,-999.0,-99.9,30.82,North,-999,-999.0,-999.0,-999,0.00,,,0.00,weatherlink.com 1.10,2013-01-15 12:50:00,
2013-01-15 05:05:00,-999.0,-99.9,30.82,North,-999,-999.0,-999.0,-999,0.00,,,0.00,weatherlink.com 1.10,2013-01-15 13:05:00,
2013-01-15 05:21:00,-999.0,-99.9,30.82,North,-999,-999.0,-999.0,-999,0.00,,,0.00,weatherlink.com 1.10,2013-01-15 13:21:00,
2013-01-15 05:36:00,-999.0,-99.9,30.83,North,-999,-999.0,-999.0,-999,0.00,,,0.00,weatherlink.com 1.10,2013-01-15 13:36:00,
2013-01-15 05:51:00,-999.0,-99.9,30.83,North,-999,-999.0,-999.0,-999,0.00,,,0.00,weatherlink.com 1.10,2013-01-15 13:51:00,
2013-01-15 06:06:00,-999.0,-99.9,30.83,North,-999,-999.0,-999.0,-999,0.00,,,0.00,weatherlink.com 1.10,2013-01-15 14:06:00,
2013-01-15 06:21:00,-999.0,-99.9,30.84,North,-999,-999.0,-999.0,-999,0.00,,,0.00,weatherlink.com 1.10,2013-01-15 14:21:00,
2013-01-15 06:36:00,-999.0,-99.9,30.84,North,-999,-999.0,-999.0,-999,0.00,,,0.00,weatherlink.com 1.10,2013-01-15 14:36:00,
2013-01-15 06:51:00,-999.0,-99.9,30.84,North,-999,-999.0,-999.0,-999,0.00,,,0.00,weatherlink.com 1.10,2013-01-15 14:51:00,
2013-01-15 07:06:00,-999.0,-99.9,30.85,North,-999,-999.0,-999.0,-999,0.00,,,0.00,weatherlink.com 1.10,2013-01-15 15:06:00,
2013-01-15 07:21:00,-999.0,-99.9,30.86,North,-999,-999.0,-999.0,-999,0.00,,,0.00,weatherlink.com 1.10,2013-01-15 15:21:00,
2013-01-15 07:36:00,-999.0,-99.9,30.87,North,-999,-999.0,-999.0,-999,0.00,,,0.00,weatherlink.com 1.10,2013-01-15 15:36:00,
2013-01-15 07:51:00,-999.0,-99.9,30.87,North,-999,-999.0,-999.0,-999,0.00,,,0.00,weatherlink.com 1.10,2013-01-15 15:51:00,
2013-01-15 08:06:00,-999.0,-99.9,30.87,North,-999,-999.0,-999.0,-999,0.00,,,0.00,weatherlink.com 1.10,2013-01-15 16:06:00,
2013-01-15 08:21:00,-999.0,-99.9,30.88,North,-999,-999.0,-999.0,-999,0.00,,,0.00,weatherlink.com 1.10,2013-01-15 16:21:00,
2013-01-15 08:36:00,-999.0,-99.9,30.88,North,-999,-999.0,-999.0,-999,0.00,,,0.00,weatherlink.com 1.10,2013-01-15 16:36:00,
2013-01-15 08:51:00,37.1,33.0,30.88,ENE,72,2.0,4.0,85,0.00,,,0.00,weatherlink.com 1.10,2013-01-15 16:51:00,
2013-01-15 09:06:00,36.9,33.0,30.89,ENE,68,2.0,4.0,86,0.00,,,0.00,weatherlink.com 1.10,2013-01-15 17:06:00,
2013-01-15 09:21:00,36.9,33.0,30.89,East,82,1.0,4.0,86,0.00,,,0.00,weatherlink.com 1.10,2013-01-15 17:21:00,
2013-01-15 09:36:00,37.0,34.0,30.89,East,94,2.0,3.0,87,0.00,,,0.00,weatherlink.com 1.10,2013-01-15 17:36:00,
2013-01-15 09:51:00,37.1,34.0,30.90,East,92,0.0,4.0,87,0.00,,,0.00,weatherlink.com 1.10,2013-01-15 17:51:00,
2013-01-15 10:06:00,37.4,34.0,30.90,ENE,64,2.0,4.0,87,0.00,,,0.00,weatherlink.com 1.10,2013-01-15 18:06:00,
2013-01-15 10:21:00,37.7,34.0,30.90,ENE,58,2.0,3.0,87,0.00,,,0.00,weatherlink.com 1.10,2013-01-15 18:21:00,
2013-01-15 10:36:00,37.9,34.0,30.91,NE,44,0.0,4.0,87,0.00,,,0.00,weatherlink.com 1.10,2013-01-15 18:36:00,
2013-01-15 10:51:00,38.1,34.0,30.91,NNE,30,2.0,4.0,86,0.00,,,0.00,weatherlink.com 1.10,2013-01-15 18:51:00,
2013-01-15 11:06:00,38.2,34.0,30.91,NE,47,2.0,3.0,85,0.00,,,0.00,weatherlink.com 1.10,2013-01-15 19:06:00,
2013-01-15 11:21:00,38.5,34.0,30.90,NE,47,2.0,3.0,85,0.00,,,0.00,weatherlink.com 1.10,2013-01-15 19:21:00,
2013-01-15 11:36:00,38.6,34.0,30.90,NE,47,3.0,6.0,84,0.00,,,0.00,weatherlink.com 1.10,2013-01-15 19:36:00,
2013-01-15 11:51:00,38.9,35.0,30.89,NE,36,3.0,6.0,84,0.00,,,0.00,weatherlink.com 1.10,2013-01-15 19:51:00,
2013-01-15 12:06:00,38.9,35.0,30.89,NE,51,4.0,5.0,84,0.00,,,0.00,weatherlink.com 1.10,2013-01-15 20:06:00,
2013-01-15 12:21:00,38.8,34.0,30.89,NE,54,3.0,6.0,84,0.00,,,0.00,weatherlink.com 1.10,2013-01-15 20:21:00,
2013-01-15 12:36:00,38.9,35.0,30.89,NE,41,3.0,4.0,85,0.00,,,0.00,weatherlink.com 1.10,2013-01-15 20:36:00,
2013-01-15 12:51:00,38.9,35.0,30.88,NE,41,0.0,5.0,84,0.00,,,0.00,weatherlink.com 1.10,2013-01-15 20:51:00,
2013-01-15 13:21:00,38.8,34.0,30.88,NW,314,4.0,5.0,84,0.00,,,0.00,weatherlink.com 1.10,2013-01-15 21:21:00,
2013-01-15 13:36:00,38.7,34.0,30.88,ENE,67,1.0,5.0,83,0.00,,,0.00,weatherlink.com 1.10,2013-01-15 21:36:00,
2013-01-15 13:51:00,38.7,34.0,30.88,ENE,58,2.0,4.0,82,0.00,,,0.00,weatherlink.com 1.10,2013-01-15 21:51:00,
2013-01-15 14:21:00,39.0,34.0,30.88,NNE,25,0.0,3.0,82,0.00,,,0.00,weatherlink.com 1.10,2013-01-15 22:21:00,
2013-01-15 14:36:00,38.9,34.0,30.88,NE,49,1.0,3.0,82,0.00,,,0.00,weatherlink.com 1.10,2013-01-15 22:36:00,
2013-01-15 14:51:00,38.8,34.0,30.89,NE,51,1.0,4.0,82,0.00,,,0.00,weatherlink.com 1.10,2013-01-15 22:51:00,
2013-01-15 15:06:00,38.9,34.0,30.89,East,99,0.0,3.0,82,0.00,,,0.00,weatherlink.com 1.10,2013-01-15 23:06:00,
2013-01-15 15:21:00,38.8,34.0,30.89,East,84,2.0,3.0,82,0.00,,,0.00,weatherlink.com 1.10,2013-01-15 23:21:00,
2013-01-15 15:36:00,38.7,34.0,30.89,East,84,2.0,2.0,82,0.00,,,0.00,weatherlink.com 1.10,2013-01-15 23:36:00,
2013-01-15 15:51:00,38.7,34.0,30.88,ENE,69,2.0,2.0,82,0.00,,,0.00,weatherlink.com 1.10,2013-01-15 23:51:00,
2013-01-15 16:06:00,38.6,34.0,30.89,ENE,64,1.0,2.0,82,0.00,,,0.00,weatherlink.com 1.10,2013-01-16 00:06:00,
2013-01-15 16:21:00,38.5,33.0,30.89,ENE,66,3.0,3.0,82,0.00,,,0.00,weatherlink.com 1.10,2013-01-16 00:21:00,
2013-01-15 16:36:00,38.5,33.0,30.89,ENE,68,2.0,3.0,81,0.00,,,0.00,weatherlink.com 1.10,2013-01-16 00:36:00,
2013-01-15 16:51:00,38.5,33.0,30.89,NE,49,2.0,3.0,80,0.00,,,0.00,weatherlink.com 1.10,2013-01-16 00:51:00,
2013-01-15 17:06:00,38.5,33.0,30.89,ENE,75,1.0,1.0,80,0.00,,,0.00,weatherlink.com 1.10,2013-01-16 01:06:00,
2013-01-15 17:21:00,38.7,33.0,30.89,NE,53,0.0,1.0,80,0.00,,,0.00,weatherlink.com 1.10,2013-01-16 01:21:00,
2013-01-15 17:36:00,38.9,33.0,30.89,NE,53,0.0,0.0,79,0.00,,,0.00,weatherlink.com 1.10,2013-01-16 01:36:00,
2013-01-15 17:51:00,39.0,33.0,30.89,NE,53,0.0,0.0,80,0.00,,,0.00,weatherlink.com 1.10,2013-01-16 01:51:00,
2013-01-15 18:07:00,39.0,33.0,30.89,NE,53,0.0,0.0,80,0.00,,,0.00,weatherlink.com 1.10,2013-01-16 02:07:00,
2013-01-15 18:22:00,39.0,33.0,30.89,ENE,63,0.0,0.0,80,0.00,,,0.00,weatherlink.com 1.10,2013-01-16 02:22:00,
2013-01-15 18:37:00,39.0,33.0,30.89,ENE,65,2.0,3.0,80,0.00,,,0.00,weatherlink.com 1.10,2013-01-16 02:37:00,
2013-01-15 18:52:00,39.2,34.0,30.89,NE,54,2.0,4.0,81,0.00,,,0.00,weatherlink.com 1.10,2013-01-16 02:52:00,
2013-01-15 19:07:00,39.1,34.0,30.88,East,90,0.0,2.0,81,0.00,,,0.00,weatherlink.com 1.10,2013-01-16 03:07:00,
2013-01-15 19:22:00,38.9,34.0,30.88,East,98,1.0,1.0,82,0.00,,,0.00,weatherlink.com 1.10,2013-01-16 03:22:00,
2013-01-15 19:37:00,39.1,34.0,30.89,WNW,288,0.0,3.0,82,0.00,,,0.00,weatherlink.com 1.10,2013-01-16 03:37:00,
2013-01-15 19:52:00,39.1,34.0,30.89,North,349,1.0,4.0,81,0.00,,,0.00,weatherlink.com 1.10,2013-01-16 03:52:00,
2013-01-15 20:07:00,39.1,34.0,30.88,North,359,1.0,3.0,81,0.00,,,0.00,weatherlink.com 1.10,2013-01-16 04:07:00,
2013-01-15 20:22:00,39.1,34.0,30.88,WSW,248,0.0,1.0,81,0.00,,,0.00,weatherlink.com 1.10,2013-01-16 04:22:00,
2013-01-15 20:37:00,39.2,34.0,30.88,NNW,338,0.0,8.0,80,0.00,,,0.00,weatherlink.com 1.10,2013-01-16 04:37:00,
2013-01-15 20:52:00,39.2,34.0,30.88,NNE,12,1.0,4.0,80,0.00,,,0.00,weatherlink.com 1.10,2013-01-16 04:52:00,
2013-01-15 21:07:00,39.2,34.0,30.88,East,85,0.0,4.0,81,0.00,,,0.00,weatherlink.com 1.10,2013-01-16 05:07:00,
2013-01-15 21:22:00,39.1,34.0,30.88,SSE,167,0.0,0.0,81,0.00,,,0.00,weatherlink.com 1.10,2013-01-16 05:22:00,
2013-01-15 21:37:00,39.1,34.0,30.87,ESE,121,0.0,0.0,81,0.00,,,0.00,weatherlink.com 1.10,2013-01-16 05:37:00,
2013-01-15 21:52:00,39.1,34.0,30.88,NE,39,2.0,3.0,81,0.00,,,0.00,weatherlink.com 1.10,2013-01-16 05:52:00,
2013-01-15 22:07:00,39.1,34.0,30.88,East,81,1.0,4.0,81,0.00,,,0.00,weatherlink.com 1.10,2013-01-16 06:07:00,
2013-01-15 22:22:00,39.1,34.0,30.87,NNE,27,2.0,3.0,81,0.00,,,0.00,weatherlink.com 1.10,2013-01-16 06:22:00,
2013-01-15 22:37:00,39.1,34.0,30.87,West,280,1.0,2.0,81,0.00,,,0.00,weatherlink.com 1.10,2013-01-16 06:37:00,
2013-01-15 22:52:00,39.0,34.0,30.88,East,101,0.0,0.0,82,0.00,,,0.00,weatherlink.com 1.10,2013-01-16 06:52:00,
2013-01-15 23:07:00,39.0,34.0,30.88,East,86,0.0,0.0,82,0.00,,,0.00,weatherlink.com 1.10,2013-01-16 07:07:00,
2013-01-15 23:22:00,39.0,34.0,30.87,NE,54,1.0,2.0,83,0.00,,,0.00,weatherlink.com 1.10,2013-01-16 07:22:00,
2013-01-15 23:37:00,39.0,34.0,30.87,ENE,70,1.0,2.0,82,0.00,,,0.00,weatherlink.com 1.10,2013-01-16 07:37:00,
2013-01-15 23:52:00,39.0,34.0,30.87,East,94,1.0,3.0,82,0.00,,,0.00,weatherlink.com 1.10,2013-01-16 07:52:00,